Total_Precipitation_Accumulation
0.00 0.00 0.00 0.00 0.00 0.00 0.00 0.00 0.00 0.00 0.00 0.00 0.01 0.01 0.00 0.00 0.00 0.00 0.00 0.00 0.00 0.00 0.00 0.00 0.00 0.00 0.00 0.01 0.04 0.22 0.57 0.49 0.11 0.02 0.00 0.00 0.01 0.00 0.00 0.00 0.00 0.00 0.00 0.00 0.00
0.00 0.00 0.00 0.00 0.00 0.00 0.00 0.00 0.00 0.00 0.00 0.00 0.01 0.00 0.00 0.00 0.00 0.00 0.00 0.02 0.03 0.02 0.00 0.00 0.00 0.00 0.00 0.01 0.07 0.15 0.33 0.43 0.17 0.02 0.01 0.03 0.05 0.05 0.02 0.00 0.00 0.00 0.00 0.01 0.08
0.00 0.00 0.00 0.00 0.00 0.00 0.00 0.00 0.00 0.00 0.00 0.00 0.01 0.00 0.00 0.00 0.00 0.00 0.00 0.01 0.01 0.00 0.00 0.00 0.00 0.00 0.00 0.00 0.05 0.15 0.21 0.21 0.14 0.08 0.05 0.10 0.10 0.05 0.09 0.07 0.00 0.00 0.00 0.12 0.28
0.00 0.00 0.00 0.00 0.00 0.00 0.00 0.00 0.00 0.00 0.00 0.00 0.00 0.00 0.00 0.00 0.00 0.00 0.00 0.00 0.01 0.00 0.00 0.00 0.00 0.00 0.00 0.00 0.03 0.09 0.07 0.16 0.15 0.16 0.21 0.17 0.20 0.15 0.10 0.14 0.00 0.00 0.02 0.17 0.32
0.00 0.00 0.00 0.00 0.00 0.00 0.00 0.00 0.00 0.00 0.00 0.00 0.00 0.00 0.00 0.00 0.00 0.00 0.00 0.00 0.00 0.00 0.00 0.00 0.00 0.00 0.00 0.00 0.01 0.04 0.04 0.15 0.16 0.18 0.32 0.29 0.21 0.20 0.12 0.05 0.02 0.01 0.02 0.14 0.29
0.00 0.00 0.00 0.00 0.00 0.00 0.00 0.00 0.00 0.00 0.00 0.00 0.00 0.00 0.00 0.00 0.00 0.00 0.00 0.00 0.00 0.00 0.00 0.00 0.01 0.02 0.01 0.01 0.01 0.02 0.03 0.12 0.18 0.24 0.29 0.49 0.22 0.28 0.13 0.05 0.09 0.07 0.11 0.24 0.35
0.00 0.00 0.00 0.00 0.00 0.00 0.00 0.00 0.00 0.00 0.00 0.00 0.00 0.01 0.00 0.00 0.00 0.00 0.00 0.00 0.00 0.00 0.01 0.01 0.05 0.09 0.07 0.03 0.03 0.02 0.04 0.07 0.23 0.21 0.38 0.46 0.34 0.18 0.11 0.17 0.24 0.25 0.25 0.26 0.23
0.00 0.00 0.00 0.00 0.00 0.00 0.00 0.00 0.00 0.00 0.00 0.00 0.00 0.00 0.00 0.00 0.00 0.00 0.00 0.00 0.00 0.00 0.01 0.02 0.11 0.15 0.13 0.07 0.07 0.10 0.15 0.12 0.22 0.31 0.31 0.61 0.39 0.09 0.17 0.23 0.28 0.34 0.35 0.36 0.34
0.00 0.00 0.00 0.00 0.00 0.00 0.00 0.00 0.00 0.00 0.00 0.00 0.00 0.00 0.00 0.00 0.00 0.00 0.00 0.00 0.01 0.13 0.15 0.22 0.37 0.31 0.21 0.15 0.14 0.14 0.16 0.11 0.19 0.47 0.48 0.50 0.27 0.13 0.31 0.39 0.29 0.26 0.36 0.34 0.37
0.00 0.00 0.00 0.00 0.00 0.00 0.00 0.00 0.00 0.00 0.00 0.00 0.00 0.00 0.00 0.00 0.00 0.00 0.00 0.01 0.05 0.17 0.12 0.22 0.33 0.33 0.15 0.18 0.12 0.06 0.10 0.10 0.18 0.43 0.68 0.54 0.16 0.17 0.34 0.45 0.42 0.30 0.41 0.45 0.47
0.00 0.00 0.00 0.00 0.00 0.00 0.00 0.00 0.00 0.00 0.00 0.00 0.00 0.00 0.00 0.00 0.01 0.03 0.01 0.01 0.01 0.03 0.03 0.06 0.06 0.04 0.02 0.02 0.03 0.08 0.14 0.11 0.15 0.26 0.82 0.58 0.24 0.22 0.44 0.49 0.54 0.42 0.35 0.42 0.49
0.00 0.00 0.00 0.00 0.00 0.00 0.00 0.00 0.00 0.00 0.00 0.00 0.00 0.00 0.00 0.00 0.03 0.07 0.01 0.00 0.00 0.01 0.01 0.02 0.02 0.00 0.00 0.03 0.04 0.09 0.20 0.06 0.11 0.16 0.69 0.65 0.38 0.22 0.47 0.42 0.46 0.40 0.35 0.37 0.55
0.00 0.00 0.00 0.00 0.00 0.00 0.00 0.00 0.00 0.00 0.00 0.00 0.00 0.00 0.00 0.00 0.03 0.03 0.00 0.00 0.00 0.00 0.00 0.00 0.01 0.02 0.12 0.31 0.23 0.26 0.42 0.05 0.14 0.58 0.55 0.84 0.71 0.23 0.44 0.54 0.48 0.57 0.43 0.35 0.46
0.00 0.00 0.00 0.00 0.00 0.00 0.00 0.00 0.00 0.00 0.00 0.00 0.00 0.00 0.00 0.00 0.01 0.00 0.00 0.00 0.00 0.00 0.00 0.00 0.05 0.24 0.33 0.57 0.57 0.54 0.36 0.05 0.12 0.76 0.73 0.93 1.02 0.26 0.30 0.62 0.59 0.54 0.58 0.33 0.33
0.00 0.00 0.00 0.00 0.00 0.00 0.00 0.00 0.00 0.00 0.00 0.00 0.00 0.00 0.00 0.00 0.00 0.00 0.00 0.00 0.00 0.00 0.01 0.00 0.02 0.16 0.53 0.67 1.03 1.09 0.31 0.09 0.15 0.34 0.64 0.50 0.90 0.22 0.41 0.62 0.59 0.67 0.54 0.51 0.29
0.00 0.00 0.00 0.00 0.00 0.00 0.00 0.00 0.00 0.00 0.02 0.00 0.00 0.00 0.00 0.00 0.00 0.00 0.00 0.01 0.00 0.01 0.00 0.00 0.00 0.01 0.02 0.18 0.92 0.89 0.30 0.17 0.16 0.31 0.66 0.32 0.56 0.27 0.38 0.36 0.42 0.85 0.79 0.77 0.40
0.00 0.00 0.00 0.00 0.00 0.00 0.00 0.00 0.00 0.00 0.00 0.00 0.00 0.00 0.00 0.00 0.00 0.00 0.00 0.01 0.00 0.02 0.01 0.00 0.00 0.00 0.00 0.01 0.09 0.37 0.36 0.40 0.25 0.20 0.24 0.04 0.19 0.20 0.12 0.19 0.13 0.82 1.04 0.78 0.59
0.00 0.00 0.00 0.00 0.00 0.00 0.00 0.00 0.00 0.00 0.00 0.00 0.00 0.00 0.00 0.00 0.00 0.01 0.01 0.00 0.00 0.01 0.07 0.03 0.00 0.00 0.00 0.00 0.00 0.03 0.08 0.35 0.19 0.02 0.03 0.01 0.02 0.03 0.01 0.16 0.11 0.59 0.79 0.75 0.79
0.00 0.00 0.00 0.00 0.00 0.00 0.00 0.00 0.00 0.00 0.00 0.00 0.00 0.00 0.00 0.01 0.02 0.01 0.00 0.00 0.00 0.00 0.05 0.05 0.02 0.00 0.00 0.00 0.00 0.00 0.01 0.03 0.14 0.03 0.05 0.02 0.00 0.01 0.00 0.23 0.17 0.36 0.50 0.59 0.71
0.00 0.00 0.00 0.00 0.00 0.00 0.00 0.00 0.00 0.00 0.01 0.00 0.00 0.00 0.00 0.00 0.00 0.00 0.00 0.00 0.01 0.04 0.06 0.11 0.13 0.00 0.00 0.00 0.00 0.00 0.02 0.13 0.21 0.19 0.06 0.00 0.00 0.00 0.00 0.09 0.24 0.29 0.46 0.49 0.54
0.00 0.00 0.00 0.00 0.00 0.00 0.00 0.00 0.00 0.00 0.00 0.00 0.00 0.01 0.01 0.01 0.00 0.00 0.01 0.00 0.00 0.02 0.07 0.12 0.17 0.03 0.00 0.00 0.00 0.01 0.04 0.13 0.13 0.06 0.19 0.08 0.01 0.00 0.00 0.00 0.13 0.24 0.64 0.49 0.54
0.00 0.00 0.00 0.00 0.00 0.00 0.00 0.00 0.00 0.00 0.00 0.00 0.00 0.01 0.03 0.02 0.02 0.00 0.00 0.03 0.01 0.01 0.02 0.03 0.11 0.03 0.00 0.00 0.00 0.03 0.09 0.10 0.16 0.09 0.04 0.06 0.03 0.00 0.00 0.00 0.00 0.15 0.40 0.56 0.50
0.03 0.01 0.00 0.00 0.00 0.00 0.00 0.00 0.00 0.00 0.00 0.00 0.01 0.02 0.01 0.01 0.05 0.02 0.01 0.01 0.01 0.02 0.03 0.04 0.09 0.06 0.01 0.02 0.02 0.01 0.01 0.02 0.07 0.08 0.06 0.05 0.02 0.00 0.00 0.00 0.00 0.05 0.33 0.47 0.72
0.06 0.04 0.00 0.00 0.00 0.00 0.00 0.00 0.00 0.00 0.00 0.00 0.00 0.00 0.02 0.01 0.02 0.07 0.01 0.00 0.00 0.00 0.01 0.11 0.12 0.04 0.03 0.02 0.01 0.00 0.00 0.00 0.04 0.09 0.02 0.01 0.00 0.00 0.00 0.00 0.00 0.00 0.06 0.36 0.40
0.12 0.05 0.01 0.01 0.01 0.02 0.06 0.03 0.00 0.00 0.01 0.00 0.01 0.00 0.07 0.12 0.02 0.02 0.01 0.01 0.00 0.00 0.01 0.09 0.14 0.00 0.00 0.00 0.00 0.00 0.00 0.00 0.00 0.00 0.05 0.01 0.00 0.00 0.00 0.00 0.00 0.00 0.00 0.04 0.17
0.09 0.06 0.09 0.12 0.06 0.06 0.07 0.03 0.00 0.02 0.02 0.02 0.05 0.03 0.05 0.09 0.05 0.07 0.08 0.06 0.04 0.01 0.01 0.07 0.17 0.03 0.01 0.00 0.00 0.00 0.00 0.00 0.00 0.00 0.00 0.00 0.01 0.00 0.00 0.00 0.00 0.00 0.00 0.00 0.03
0.13 0.11 0.18 0.18 0.08 0.09 0.04 0.01 0.03 0.06 0.07 0.03 0.05 0.07 0.05 0.04 0.05 0.04 0.03 0.03 0.03 0.04 0.09 0.21 0.18 0.17 0.09 0.00 0.01 0.01 0.00 0.00 0.00 0.01 0.04 0.06 0.04 0.01 0.00 0.00 0.01 0.00 0.00 0.00 0.00